| time (UTC) | temp F | wind direction | speed MPH | gust MPH | rain 1hr in | rain 24hr in | rain mn in | humidity % | barometer mb |
| 20260508222227 | 77 | 154 | 0.0 | 7.0 | 0.00 | 0.15 | 0.15 | 63 | 1009.8 |
| 20260508221723 | 78 | 160 | 2.0 | 8.0 | 0.00 | 0.15 | 0.15 | 63 | 1009.8 |
| 20260508221219 | 78 | 140 | 3.0 | 8.0 | 0.00 | 0.15 | 0.15 | 62 | 1009.8 |
| 20260508220715 | 78 | 181 | 4.0 | 6.0 | 0.00 | 0.15 | 0.15 | 62 | 1009.9 |
| 20260508220212 | 77 | 141 | 3.0 | 11.0 | 0.00 | 0.15 | 0.15 | 63 | 1009.6 |
| 20260508215708 | 78 | 182 | 6.0 | 11.0 | 0.00 | 0.15 | 0.15 | 62 | 1009.9 |
| 20260508215205 | 79 | 149 | 1.0 | 6.0 | 0.00 | 0.15 | 0.15 | 60 | 1009.8 |
| 20260508214702 | 78 | 182 | 1.0 | 8.0 | 0.00 | 0.15 | 0.15 | 63 | 1009.8 |
| 20260508214200 | 78 | 224 | 4.0 | 7.0 | 0.00 | 0.15 | 0.15 | 62 | 1009.9 |
| 20260508213656 | 78 | 120 | 4.0 | 9.0 | 0.00 | 0.15 | 0.15 | 61 | 1009.9 |
| 20260508213152 | 78 | 94 | 1.0 | 7.0 | 0.00 | 0.15 | 0.15 | 62 | 1009.8 |
| 20260508212649 | 78 | 66 | 3.0 | 9.0 | 0.00 | 0.15 | 0.15 | 63 | 1009.8 |
| 20260508212146 | 78 | 171 | 1.0 | 10.0 | 0.00 | 0.15 | 0.15 | 62 | 1009.9 |
| 20260508211640 | 79 | 11 | 1.0 | 5.0 | 0.00 | 0.15 | 0.15 | 62 | 1009.7 |
| 20260508211137 | 78 | 320 | 2.0 | 10.0 | 0.00 | 0.15 | 0.15 | 65 | 1009.7 |
| 20260508210634 | 79 | 94 | 5.0 | 6.0 | 0.00 | 0.15 | 0.15 | 61 | 1009.6 |
| 20260508210132 | 78 | 120 | 4.0 | 5.0 | 0.00 | 0.15 | 0.15 | 63 | 1010.1 |
| 20260508205629 | 78 | 199 | 2.0 | 9.0 | 0.00 | 0.15 | 0.15 | 62 | 1010.4 |
| 20260508205125 | 78 | 117 | 3.0 | 11.0 | 0.00 | 0.15 | 0.15 | 63 | 1010.5 |
| 20260508204621 | 77 | 130 | 6.0 | 13.0 | 0.00 | 0.15 | 0.15 | 63 | 1010.7 |
| 20260508204117 | 78 | 187 | 6.0 | 13.0 | 0.00 | 0.15 | 0.15 | 64 | 1010.8 |
| 20260508203613 | 78 | 192 | 9.0 | 11.0 | 0.00 | 0.15 | 0.15 | 63 | 1010.9 |
| 20260508203110 | 78 | 237 | 4.0 | 12.0 | 0.00 | 0.15 | 0.15 | 63 | 1011.1 |
| 20260508202606 | 79 | 225 | 4.0 | 9.0 | 0.00 | 0.15 | 0.15 | 63 | 1011.2 |
| 20260508202104 | 78 | 192 | 2.0 | 7.0 | 0.00 | 0.15 | 0.15 | 63 | 1011.3 |
| 20260508201600 | 78 | 202 | 5.0 | 14.0 | 0.00 | 0.15 | 0.15 | 63 | 1011.5 |
| 20260508201057 | 78 | 177 | 6.0 | 12.0 | 0.00 | 0.15 | 0.15 | 61 | 1011.1 |
| 20260508200554 | 79 | 198 | 7.0 | 11.0 | 0.00 | 0.15 | 0.15 | 60 | 1011.2 |
| 20260508200049 | 79 | 149 | 3.0 | 9.0 | 0.00 | 0.15 | 0.15 | 60 | 1011.5 |
| 20260508195546 | 78 | 195 | 4.0 | 7.0 | 0.00 | 0.15 | 0.15 | 62 | 1011.6 |
| 20260508195042 | 76 | 187 | 5.0 | 11.0 | 0.00 | 0.15 | 0.15 | 64 | 1011.7 |
| 20260508194540 | 76 | 181 | 5.0 | 8.0 | 0.00 | 0.15 | 0.15 | 62 | 1011.9 |
| 20260508194037 | 77 | 177 | 3.0 | 11.0 | 0.00 | 0.15 | 0.15 | 62 | 1011.8 |
| 20260508193533 | 77 | 210 | 3.0 | 7.0 | 0.00 | 0.15 | 0.15 | 62 | 1011.7 |
| 20260508193030 | 78 | 196 | 5.0 | 7.0 | 0.00 | 0.15 | 0.15 | 61 | 1011.7 |
| 20260508192527 | 78 | 196 | 2.0 | 9.0 | 0.00 | 0.15 | 0.15 | 59 | 1011.9 |
| 20260508192024 | 78 | 87 | 4.0 | 5.0 | 0.00 | 0.15 | 0.15 | 62 | 1011.9 |
| 20260508191521 | 77 | 218 | 5.0 | 10.0 | 0.00 | 0.15 | 0.15 | 60 | 1011.9 |
| 20260508191017 | 77 | 194 | 5.0 | 7.0 | 0.00 | 0.15 | 0.15 | 61 | 1011.9 |
| 20260508190515 | 77 | 191 | 4.0 | 9.0 | 0.00 | 0.15 | 0.15 | 63 | 1011.9 |
| 20260508190011 | 77 | 204 | 6.0 | 8.0 | 0.00 | 0.15 | 0.15 | 61 | 1012.0 |
| 20260508185508 | 77 | 197 | 5.0 | 7.0 | 0.00 | 0.15 | 0.15 | 62 | 1012.0 |
| 20260508185006 | 76 | 187 | 3.0 | 6.0 | 0.00 | 0.15 | 0.15 | 62 | 1012.0 |
| 20260508184504 | 77 | 93 | 5.0 | 7.0 | 0.00 | 0.15 | 0.15 | 63 | 1011.9 |
| 20260508183959 | 76 | 155 | 5.0 | 5.0 | 0.00 | 0.15 | 0.15 | 63 | 1012.3 |
| 20260508183456 | 75 | 233 | 2.0 | 11.0 | 0.00 | 0.15 | 0.15 | 64 | 1012.4 |
| 20260508182951 | 75 | 180 | 5.0 | 7.0 | 0.00 | 0.15 | 0.15 | 62 | 1012.4 |
| 20260508182449 | 75 | 198 | 5.0 | 9.0 | 0.00 | 0.15 | 0.15 | 64 | 1012.6 |
| 20260508181944 | 75 | 329 | 1.0 | 3.0 | 0.00 | 0.15 | 0.15 | 65 | 1012.6 |
| 20260508181441 | 75 | 215 | 4.0 | 9.0 | 0.00 | 0.15 | 0.15 | 63 | 1012.7 |
| 20260508180939 | 75 | 238 | 3.0 | 8.0 | 0.00 | 0.15 | 0.15 | 63 | 1012.9 |
| 20260508180435 | 74 | 205 | 4.0 | 14.0 | 0.00 | 0.15 | 0.15 | 65 | 1012.9 |
| 20260508175931 | 74 | 113 | 3.0 | 5.0 | 0.00 | 0.15 | 0.15 | 63 | 1013.0 |
| 20260508175428 | 74 | 213 | 3.0 | 6.0 | 0.00 | 0.15 | 0.15 | 61 | 1013.1 |
| 20260508174926 | 74 | 122 | 5.0 | 5.0 | 0.00 | 0.15 | 0.15 | 63 | 1013.2 |
| 20260508174423 | 74 | 180 | 3.0 | 7.0 | 0.00 | 0.15 | 0.15 | 63 | 1013.3 |
| 20260508173919 | 73 | 202 | 8.0 | 8.0 | 0.00 | 0.15 | 0.15 | 61 | 1013.2 |
| 20260508173417 | 73 | 129 | 3.0 | 6.0 | 0.00 | 0.15 | 0.15 | 65 | 1013.3 |
| 20260508172912 | 73 | 100 | 6.0 | 8.0 | 0.00 | 0.15 | 0.15 | 63 | 1013.4 |
| 20260508172410 | 73 | 259 | 2.0 | 5.0 | 0.00 | 0.15 | 0.15 | 67 | 1013.6 |
| 20260508171906 | 72 | 124 | 6.0 | 7.0 | 0.00 | 0.15 | 0.15 | 65 | 1013.6 |
| 20260508171403 | 73 | 113 | 3.0 | 9.0 | 0.00 | 0.15 | 0.15 | 61 | 1013.6 |
| 20260508170900 | 72 | 197 | 6.0 | 6.0 | 0.00 | 0.15 | 0.15 | 64 | 1013.8 |
| 20260508170357 | 72 | 134 | 7.0 | 8.0 | 0.00 | 0.15 | 0.15 | 63 | 1013.9 |
| 20260508165853 | 72 | 50 | 3.0 | 5.0 | 0.00 | 0.15 | 0.15 | 65 | 1014.2 |
| 20260508165351 | 72 | 106 | 3.0 | 6.0 | 0.00 | 0.15 | 0.15 | 63 | 1014.4 |
| 20260508164847 | 71 | 160 | 0.0 | 7.0 | 0.00 | 0.15 | 0.15 | 69 | 1014.5 |
| 20260508164344 | 70 | 143 | 5.0 | 9.0 | 0.00 | 0.15 | 0.15 | 66 | 1014.3 |
| 20260508163842 | 69 | 211 | 4.0 | 5.0 | 0.00 | 0.15 | 0.15 | 68 | 1014.5 |
| 20260508163339 | 69 | 125 | 3.0 | 9.0 | 0.00 | 0.15 | 0.15 | 67 | 1014.7 |
| 20260508162835 | 69 | 80 | 4.0 | 8.0 | 0.00 | 0.15 | 0.15 | 68 | 1014.7 |
| 20260508162332 | 69 | 191 | 2.0 | 9.0 | 0.00 | 0.15 | 0.15 | 68 | 1014.7 |
| 20260508161829 | 69 | 96 | 3.0 | 8.0 | 0.00 | 0.00 | 0.00 | 70 | 1015.0 |
| 20260508161326 | 69 | 210 | 5.0 | 13.0 | 0.00 | 0.15 | 0.15 | 68 | 1014.8 |
| 20260508160824 | 69 | 192 | 4.0 | 7.0 | 0.00 | 0.15 | 0.15 | 69 | 1014.7 |
| 20260508160322 | 68 | 139 | 4.0 | 6.0 | 0.00 | 0.15 | 0.15 | 73 | 1014.8 |
| 20260508155817 | 67 | 142 | 2.0 | 11.0 | 0.00 | 0.15 | 0.15 | 73 | 1014.9 |
| 20260508155314 | 67 | 189 | 2.0 | 5.0 | 0.00 | 0.15 | 0.15 | 73 | 1015.0 |
| 20260508154811 | 68 | 139 | 1.0 | 5.0 | 0.00 | 0.15 | 0.15 | 73 | 1014.8 |
| 20260508154309 | 67 | 144 | 3.0 | 5.0 | 0.00 | 0.15 | 0.15 | 75 | 1015.1 |
| 20260508153805 | 66 | 172 | 0.0 | 4.0 | 0.00 | 0.15 | 0.15 | 76 | 1015.0 |
| 20260508153303 | 66 | 183 | 4.0 | 5.0 | 0.00 | 0.15 | 0.15 | 76 | 1015.0 |
| 20260508152759 | 66 | 183 | 4.0 | 4.0 | 0.00 | 0.15 | 0.15 | 75 | 1015.1 |
| 20260508152256 | 65 | 180 | 6.0 | 6.0 | 0.00 | 0.15 | 0.15 | 75 | 1015.4 |
| 20260508151752 | 65 | 206 | 2.0 | 5.0 | 0.00 | 0.15 | 0.15 | 76 | 1015.3 |
| 20260508151249 | 65 | 189 | 3.0 | 4.0 | 0.00 | 0.15 | 0.15 | 78 | 1015.5 |
| 20260508150745 | 65 | 180 | 3.0 | 4.0 | 0.00 | 0.15 | 0.15 | 77 | 1015.9 |
| 20260508150242 | 65 | 209 | 2.0 | 5.0 | 0.00 | 0.15 | 0.15 | 76 | 1015.7 |
| 20260508145738 | 65 | 176 | 6.0 | 9.0 | 0.00 | 0.15 | 0.15 | 76 | 1015.5 |
| 20260508145234 | 64 | 107 | 2.0 | 7.0 | 0.00 | 0.15 | 0.15 | 78 | 1015.5 |
| 20260508144731 | 64 | 182 | 3.0 | 4.0 | 0.00 | 0.15 | 0.15 | 78 | 1015.4 |
| 20260508144230 | 64 | 114 | 2.0 | 6.0 | 0.00 | 0.15 | 0.15 | 79 | 1015.3 |
| 20260508143727 | 64 | 158 | 4.0 | 6.0 | 0.00 | 0.15 | 0.15 | 80 | 1015.4 |
| 20260508143223 | 64 | 219 | 3.0 | 4.0 | 0.00 | 0.15 | 0.15 | 81 | 1015.4 |
| 20260508142719 | 64 | 144 | 2.0 | 6.0 | 0.00 | 0.15 | 0.15 | 83 | 1015.5 |
| 20260508142217 | 64 | 205 | 3.0 | 5.0 | 0.00 | 0.15 | 0.15 | 83 | 1015.8 |
| 20260508141713 | 64 | 156 | 3.0 | 5.0 | 0.00 | 0.15 | 0.15 | 84 | 1015.7 |
| 20260508141211 | 63 | 184 | 3.0 | 5.0 | 0.00 | 0.15 | 0.15 | 86 | 1015.6 |
| 20260508140708 | 63 | 106 | 0.0 | 4.0 | 0.00 | 0.15 | 0.15 | 88 | 1015.6 |
| 20260508140204 | 63 | 102 | 2.0 | 4.0 | 0.00 | 0.15 | 0.15 | 87 | 1015.6 |
| 20260508135701 | 63 | 105 | 1.0 | 4.0 | 0.00 | 0.15 | 0.15 | 88 | 1016.0 |
| 20260508135156 | 63 | 71 | 2.0 | 3.0 | 0.00 | 0.15 | 0.15 | 88 | 1015.7 |
| 20260508134653 | 62 | 80 | 4.0 | 5.0 | 0.00 | 0.15 | 0.15 | 89 | 1015.6 |
| 20260508134150 | 62 | 135 | 0.0 | 3.0 | 0.00 | 0.15 | 0.15 | 89 | 1015.8 |
| 20260508133647 | 62 | 65 | 1.0 | 2.0 | 0.00 | 0.15 | 0.15 | 90 | 1016.0 |
| 20260508133144 | 61 | 161 | 1.0 | 2.0 | 0.00 | 0.15 | 0.15 | 90 | 1015.9 |
| 20260508132642 | 61 | 49 | 0.0 | 2.0 | 0.00 | 0.15 | 0.15 | 91 | 1016.0 |
| 20260508132139 | 61 | 149 | 1.0 | 2.0 | 0.00 | 0.15 | 0.15 | 91 | 1015.8 |
| 20260508131634 | 61 | 135 | 0.0 | 1.0 | 0.00 | 0.15 | 0.15 | 91 | 1016.0 |
| 20260508131131 | 60 | 107 | 4.0 | 5.0 | 0.00 | 0.15 | 0.15 | 92 | 1015.8 |
| 20260508130628 | 60 | 94 | 4.0 | 4.0 | 0.00 | 0.15 | 0.15 | 92 | 1015.8 |
| 20260508130125 | 60 | 208 | 2.0 | 5.0 | 0.00 | 0.15 | 0.15 | 92 | 1015.8 |
| 20260508125620 | 60 | 95 | 0.0 | 3.0 | 0.00 | 0.15 | 0.15 | 92 | 1015.6 |
| 20260508125118 | 60 | 98 | 2.0 | 4.0 | 0.00 | 0.15 | 0.15 | 92 | 1015.4 |
| 20260508124616 | 60 | 68 | 3.0 | 3.0 | 0.00 | 0.15 | 0.15 | 92 | 1015.8 |
| 20260508124112 | 60 | 60 | 0.0 | 3.0 | 0.00 | 0.15 | 0.15 | 92 | 1016.0 |
| 20260508123611 | 60 | 175 | 2.0 | 3.0 | 0.00 | 0.15 | 0.15 | 93 | 1015.6 |
| 20260508123108 | 60 | 103 | 1.0 | 3.0 | 0.00 | 0.15 | 0.15 | 93 | 1015.4 |
| 20260508122603 | 60 | 41 | 2.0 | 4.0 | 0.00 | 0.15 | 0.15 | 93 | 1015.3 |
| 20260508122101 | 59 | 116 | 2.0 | 3.0 | 0.00 | 0.15 | 0.15 | 93 | 1016.0 |
| 20260508121559 | 60 | 113 | 5.0 | 5.0 | 0.00 | 0.15 | 0.15 | 93 | 1016.0 |
| 20260508121057 | 60 | 92 | 2.0 | 4.0 | 0.00 | 0.15 | 0.15 | 93 | 1015.6 |
| 20260508120554 | 60 | 98 | 2.0 | 3.0 | 0.00 | 0.15 | 0.15 | 93 | 1016.0 |
| 20260508120053 | 60 | 201 | 2.0 | 2.0 | 0.00 | 0.15 | 0.15 | 93 | 1016.0 |
| 20260508115549 | 60 | 59 | 2.0 | 3.0 | 0.00 | 0.15 | 0.15 | 93 | 1016.0 |
| 20260508115046 | 59 | 259 | 2.0 | 5.0 | 0.00 | 0.15 | 0.15 | 93 | 1016.0 |
| 20260508114543 | 59 | 114 | 2.0 | 4.0 | 0.00 | 0.15 | 0.15 | 93 | 1015.7 |
| 20260508114039 | 59 | 106 | 3.0 | 4.0 | 0.02 | 0.15 | 0.15 | 93 | 1015.4 |
| 20260508113537 | 59 | 196 | 2.0 | 3.0 | 0.02 | 0.15 | 0.15 | 92 | 1016.0 |
| 20260508113035 | 59 | 155 | 3.0 | 3.0 | 0.40 | 0.14 | 0.14 | 92 | 1015.6 |
| 20260508112531 | 60 | 199 | 3.0 | 5.0 | 0.45 | 0.14 | 0.14 | 91 | 1015.6 |
| 20260508112028 | 60 | 193 | 5.0 | 5.0 | 0.07 | 0.07 | 0.07 | 91 | 1015.9 |
| 20260508111525 | 60 | 216 | 2.0 | 5.0 | 0.00 | 0.06 | 0.06 | 91 | 1015.9 |
| 20260508111021 | 60 | 192 | 2.0 | 6.0 | 0.00 | 0.06 | 0.06 | 90 | 1015.2 |
| 20260508110519 | 60 | 131 | 2.0 | 4.0 | 0.00 | 0.06 | 0.06 | 90 | 1014.8 |
| 20260508110015 | 60 | 112 | 5.0 | 6.0 | 0.05 | 0.06 | 0.06 | 90 | 1015.0 |
| 20260508105510 | 60 | 129 | 0.0 | 5.0 | 0.05 | 0.06 | 0.06 | 90 | 1015.0 |
| 20260508105008 | 60 | 125 | 3.0 | 5.0 | 0.02 | 0.06 | 0.06 | 90 | 1015.0 |
| 20260508104506 | 60 | 23 | 0.0 | 9.0 | 0.17 | 0.06 | 0.06 | 89 | 1015.3 |
| 20260508104002 | 60 | 195 | 5.0 | 6.0 | 0.12 | 0.05 | 0.05 | 89 | 1015.5 |
| 20260508103459 | 60 | 147 | 1.0 | 4.0 | 0.00 | 0.03 | 0.03 | 89 | 1015.4 |
| 20260508102956 | 60 | 144 | 0.0 | 2.0 | 0.00 | 0.03 | 0.03 | 89 | 1015.4 |
| 20260508102454 | 60 | 52 | 1.0 | 4.0 | 0.00 | 0.03 | 0.03 | 89 | 1014.5 |
| 20260508101951 | 60 | 110 | 2.0 | 4.0 | 0.00 | 0.03 | 0.03 | 89 | 1015.0 |
| 20260508101449 | 60 | 213 | 3.0 | 4.0 | 0.05 | 0.03 | 0.03 | 89 | 1015.9 |
| 20260508100945 | 60 | 252 | 3.0 | 4.0 | 0.05 | 0.03 | 0.03 | 89 | 1015.5 |
| 20260508100444 | 60 | 210 | 1.0 | 2.0 | 0.00 | 0.02 | 0.02 | 89 | 1015.1 |
| 20260508095940 | 60 | 109 | 2.0 | 3.0 | 0.00 | 0.02 | 0.02 | 88 | 1014.8 |
| 20260508095438 | 60 | 243 | 0.0 | 2.0 | 0.00 | 0.02 | 0.02 | 88 | 1015.2 |
| 20260508094934 | 60 | 86 | 3.0 | 3.0 | 0.00 | 0.02 | 0.02 | 88 | 1014.9 |
| 20260508094430 | 60 | 53 | 0.0 | 2.0 | 0.00 | 0.02 | 0.02 | 87 | 1014.9 |
| 20260508093927 | 60 | 256 | 1.0 | 2.0 | 0.00 | 0.02 | 0.02 | 86 | 1014.9 |
| 20260508093425 | 60 | 44 | 0.0 | 1.0 | 0.02 | 0.02 | 0.02 | 86 | 1014.9 |
| 20260508092922 | 60 | 180 | 2.0 | 2.0 | 0.02 | 0.02 | 0.02 | 85 | 1014.8 |
| 20260508092420 | 61 | 147 | 2.0 | 3.0 | 0.09 | 0.02 | 0.02 | 84 | 1014.8 |
| 20260508091918 | 61 | 235 | 1.0 | 4.0 | 0.09 | 0.02 | 0.02 | 82 | 1014.7 |
| 20260508091414 | 61 | 186 | 3.0 | 5.0 | 0.00 | 0.00 | 0.00 | 81 | 1015.2 |
| 20260508090912 | 61 | 118 | 3.0 | 5.0 | 0.00 | 0.00 | 0.00 | 80 | 1014.8 |
| 20260508090411 | 61 | 177 | 2.0 | 5.0 | 0.00 | 0.00 | 0.00 | 80 | 1014.8 |
| 20260508085911 | 61 | 86 | 2.0 | 5.0 | 0.00 | 0.00 | 0.00 | 80 | 1015.1 |
| 20260508085408 | 61 | 204 | 0.0 | 6.0 | 0.00 | 0.00 | 0.00 | 80 | 1015.2 |
| 20260508084905 | 61 | 175 | 5.0 | 6.0 | 0.00 | 0.00 | 0.00 | 79 | 1014.9 |
| 20260508084401 | 61 | 180 | 5.0 | 6.0 | 0.00 | 0.00 | 0.00 | 79 | 1015.3 |
| 20260508083859 | 61 | 179 | 2.0 | 3.0 | 0.00 | 0.00 | 0.00 | 79 | 1015.0 |
| 20260508083357 | 61 | 35 | 1.0 | 3.0 | 0.00 | 0.00 | 0.00 | 79 | 1015.0 |
| 20260508082856 | 61 | 172 | 3.0 | 5.0 | 0.00 | 0.00 | 0.00 | 79 | 1015.2 |
| 20260508082354 | 61 | 152 | 4.0 | 6.0 | 0.00 | 0.00 | 0.00 | 80 | 1015.2 |
| 20260508081851 | 61 | 103 | 0.0 | 6.0 | 0.00 | 0.00 | 0.00 | 80 | 1015.5 |
| 20260508081348 | 62 | 115 | 2.0 | 4.0 | 0.00 | 0.00 | 0.00 | 80 | 1015.9 |
| 20260508080845 | 61 | 242 | 3.0 | 4.0 | 0.00 | 0.00 | 0.00 | 81 | 1015.7 |
| 20260508080343 | 62 | 136 | 2.0 | 4.0 | 0.00 | 0.00 | 0.00 | 79 | 1015.4 |
| 20260508075839 | 62 | 127 | 2.0 | 3.0 | 0.00 | 0.00 | 0.00 | 77 | 1015.7 |
| 20260508075336 | 62 | 294 | 2.0 | 3.0 | 0.00 | 0.00 | 0.00 | 77 | 1016.0 |
| 20260508074834 | 61 | 309 | 0.0 | 3.0 | 0.00 | 0.00 | 0.00 | 78 | 1015.6 |
| 20260508074331 | 61 | 144 | 1.0 | 2.0 | 0.00 | 0.00 | 0.00 | 78 | 1015.9 |
| 20260508073828 | 61 | 71 | 0.0 | 2.0 | 0.00 | 0.00 | 0.00 | 78 | 1016.0 |
| 20260508073326 | 61 | 97 | 1.0 | 2.0 | 0.00 | 0.00 | 0.00 | 79 | 1016.7 |
| 20260508072822 | 61 | 164 | 3.0 | 4.0 | 0.00 | 0.00 | 0.00 | 80 | 1016.7 |
| 20260508072319 | 60 | 215 | 2.0 | 3.0 | 0.00 | 0.00 | 0.00 | 80 | 1016.9 |
| 20260508071816 | 60 | 188 | 2.0 | 2.0 | 0.00 | 0.00 | 0.00 | 80 | 1016.3 |
| 20260508071314 | 60 | 142 | 0.0 | 0.0 | 0.00 | 0.00 | 0.00 | 80 | 1016.7 |
| 20260508070811 | 60 | 149 | 0.0 | 1.0 | 0.00 | 0.00 | 0.00 | 80 | 1016.2 |
| 20260508070310 | 60 | 137 | 0.0 | 2.0 | 0.00 | 0.00 | 0.00 | 81 | 1016.1 |
| 20260508065807 | 59 | 142 | 0.0 | 1.0 | 0.00 | 0.00 | 0.00 | 81 | 1016.6 |
| 20260508065307 | 60 | 124 | 0.0 | 0.0 | 0.00 | 0.00 | 0.00 | 81 | 1016.5 |
| 20260508064803 | 60 | 230 | 0.0 | 0.0 | 0.00 | 0.00 | 0.00 | 80 | 1016.7 |
| 20260508064300 | 60 | 142 | 0.0 | 1.0 | 0.00 | 0.00 | 0.00 | 79 | 1016.6 |
| 20260508063757 | 60 | 148 | 0.0 | 2.0 | 0.00 | 0.00 | 0.00 | 80 | 1016.8 |
| 20260508063255 | 59 | 55 | 0.0 | 0.0 | 0.00 | 0.00 | 0.00 | 80 | 1016.7 |
| 20260508062752 | 59 | 135 | 0.0 | 2.0 | 0.00 | 0.00 | 0.00 | 80 | 1016.9 |
| 20260508062250 | 59 | 150 | 0.0 | 1.0 | 0.00 | 0.00 | 0.00 | 80 | 1016.9 |
| 20260508061746 | 59 | 315 | 0.0 | 0.0 | 0.00 | 0.00 | 0.00 | 80 | 1017.1 |
| 20260508061243 | 59 | 315 | 0.0 | 1.0 | 0.00 | 0.00 | 0.00 | 80 | 1017.2 |
| 20260508060740 | 59 | 147 | 0.0 | 1.0 | 0.00 | 0.00 | 0.00 | 80 | 1017.1 |
| 20260508060238 | 59 | 160 | 0.0 | 1.0 | 0.00 | 0.00 | 0.00 | 80 | 1017.0 |
| 20260508055733 | 59 | 193 | 0.0 | 0.0 | 0.00 | 0.00 | 0.00 | 79 | 1016.9 |
| 20260508055230 | 60 | 142 | 0.0 | 1.0 | 0.00 | 0.00 | 0.00 | 79 | 1016.9 |
| 20260508054727 | 60 | 163 | 1.0 | 2.0 | 0.00 | 0.00 | 0.00 | 78 | 1016.9 |
| 20260508054225 | 60 | 166 | 1.0 | 2.0 | 0.00 | 0.00 | 0.00 | 77 | 1017.1 |
| 20260508053721 | 61 | 321 | 0.0 | 0.0 | 0.00 | 0.00 | 0.00 | 77 | 1017.0 |
| 20260508053219 | 61 | 321 | 0.0 | 0.0 | 0.00 | 0.00 | 0.00 | 77 | 1016.7 |
| 20260508052716 | 61 | 113 | 0.0 | 0.0 | 0.00 | 0.00 | 0.00 | 76 | 1016.8 |
| 20260508052213 | 62 | 230 | 0.0 | 1.0 | 0.00 | 0.00 | 0.00 | 75 | 1016.8 |
| 20260508051709 | 61 | 107 | 2.0 | 2.0 | 0.00 | 0.00 | 0.00 | 75 | 1016.7 |
| 20260508051205 | 61 | 116 | 1.0 | 2.0 | 0.00 | 0.00 | 0.00 | 76 | 1017.0 |
| 20260508050701 | 61 | 113 | 0.0 | 1.0 | 0.00 | 0.00 | 0.00 | 75 | 1017.1 |
| 20260508050159 | 60 | 114 | 1.0 | 2.0 | 0.00 | 0.00 | 0.00 | 76 | 1017.1 |
| 20260508045654 | 60 | 85 | 0.0 | 1.0 | 0.00 | 0.00 | 0.00 | 77 | 1017.1 |
| 20260508045152 | 60 | 219 | 0.0 | 1.0 | 0.00 | 0.00 | 0.00 | 77 | 1017.1 |
| 20260508044649 | 60 | 147 | 0.0 | 0.0 | 0.00 | 0.00 | 0.00 | 77 | 1017.0 |
| 20260508044146 | 60 | 173 | 0.0 | 2.0 | 0.00 | 0.00 | 0.00 | 76 | 1017.1 |
| 20260508043642 | 60 | 173 | 0.0 | 1.0 | 0.00 | 0.00 | 0.00 | 75 | 1016.9 |
| 20260508043140 | 60 | 147 | 0.0 | 0.0 | 0.00 | 0.00 | 0.00 | 74 | 1016.7 |
| 20260508042636 | 60 | 124 | 0.0 | 2.0 | 0.00 | 0.00 | 0.00 | 73 | 1016.9 |
| 20260508042134 | 61 | 180 | 0.0 | 0.0 | 0.00 | 0.00 | 0.00 | 72 | 1017.0 |
| 20260508041630 | 61 | 183 | 0.0 | 1.0 | 0.00 | 0.00 | 0.00 | 73 | 1017.0 |
| 20260508041127 | 61 | 148 | 0.0 | 1.0 | 0.00 | 0.00 | 0.00 | 72 | 1017.2 |
| 20260508040623 | 61 | 224 | 0.0 | 0.0 | 0.00 | 0.00 | 0.00 | 71 | 1017.0 |
| 20260508040121 | 61 | 150 | 0.0 | 1.0 | 0.00 | 0.00 | 0.00 | 70 | 1017.0 |
| 20260508035618 | 61 | 157 | 0.0 | 1.0 | 0.00 | 0.00 | 0.00 | 70 | 1017.1 |
| 20260508035115 | 62 | 159 | 0.0 | 1.0 | 0.00 | 0.00 | 0.00 | 70 | 1017.0 |
| 20260508034612 | 62 | 188 | 1.0 | 1.0 | 0.00 | 0.00 | 0.00 | 69 | 1017.1 |
| 20260508034109 | 62 | 158 | 1.0 | 2.0 | 0.00 | 0.00 | 0.00 | 69 | 1016.8 |
| 20260508033606 | 62 | 141 | 0.0 | 1.0 | 0.00 | 0.00 | 0.00 | 68 | 1016.9 |
| 20260508033104 | 62 | 126 | 0.0 | 2.0 | 0.00 | 0.00 | 0.00 | 68 | 1017.1 |
| 20260508032601 | 62 | 163 | 0.0 | 2.0 | 0.00 | 0.00 | 0.00 | 67 | 1017.0 |
| 20260508032058 | 63 | 131 | 0.0 | 2.0 | 0.00 | 0.00 | 0.00 | 67 | 1016.9 |
| 20260508031555 | 62 | 135 | 0.0 | 2.0 | 0.00 | 0.00 | 0.00 | 67 | 1016.7 |
| 20260508031051 | 62 | 174 | 0.0 | 2.0 | 0.00 | 0.00 | 0.00 | 67 | 1016.9 |
| 20260508030548 | 63 | 167 | 1.0 | 2.0 | 0.00 | 0.00 | 0.00 | 67 | 1016.8 |
| 20260508030046 | 62 | 101 | 0.0 | 2.0 | 0.00 | 0.00 | 0.00 | 67 | 1016.6 |
| 20260508025541 | 63 | 141 | 0.0 | 2.0 | 0.00 | 0.00 | 0.00 | 67 | 1016.7 |
| 20260508025039 | 63 | 151 | 0.0 | 3.0 | 0.00 | 0.00 | 0.00 | 66 | 1016.7 |
| 20260508024535 | 63 | 186 | 0.0 | 0.0 | 0.00 | 0.00 | 0.00 | 65 | 1016.6 |
| 20260508024032 | 64 | 151 | 0.0 | 2.0 | 0.00 | 0.00 | 0.00 | 64 | 1016.6 |
| 20260508023528 | 64 | 190 | 1.0 | 3.0 | 0.00 | 0.00 | 0.00 | 64 | 1016.3 |
| 20260508023026 | 64 | 157 | 1.0 | 3.0 | 0.00 | 0.00 | 0.00 | 64 | 1016.6 |
| 20260508022521 | 64 | 196 | 2.0 | 3.0 | 0.00 | 0.00 | 0.00 | 64 | 1016.3 |
| 20260508022019 | 64 | 55 | 0.0 | 3.0 | 0.00 | 0.00 | 0.00 | 65 | 1016.1 |
| 20260508021515 | 64 | 112 | 1.0 | 2.0 | 0.00 | 0.00 | 0.00 | 64 | 1016.1 |
| 20260508021010 | 64 | 164 | 0.0 | 2.0 | 0.00 | 0.00 | 0.00 | 64 | 1016.2 |
| 20260508020509 | 64 | 156 | 0.0 | 3.0 | 0.00 | 0.00 | 0.00 | 64 | 1016.2 |
| 20260508020006 | 65 | 193 | 2.0 | 2.0 | 0.00 | 0.00 | 0.00 | 64 | 1016.1 |
| 20260508015503 | 65 | 159 | 1.0 | 5.0 | 0.00 | 0.00 | 0.00 | 64 | 1016.0 |
| 20260508015000 | 65 | 118 | 1.0 | 4.0 | 0.00 | 0.00 | 0.00 | 64 | 1016.0 |
| 20260508014456 | 65 | 173 | 0.0 | 2.0 | 0.00 | 0.00 | 0.00 | 63 | 1015.9 |
| 20260508013952 | 66 | 150 | 0.0 | 3.0 | 0.00 | 0.00 | 0.00 | 62 | 1016.0 |
| 20260508013448 | 66 | 152 | 0.0 | 1.0 | 0.00 | 0.00 | 0.00 | 60 | 1015.8 |
| 20260508012946 | 66 | 198 | 2.0 | 4.0 | 0.00 | 0.00 | 0.00 | 60 | 1016.0 |
| 20260508012443 | 66 | 146 | 5.0 | 6.0 | 0.00 | 0.00 | 0.00 | 60 | 1015.9 |
| 20260508011940 | 66 | 178 | 2.0 | 4.0 | 0.00 | 0.00 | 0.00 | 59 | 1015.9 |
| 20260508011438 | 67 | 189 | 2.0 | 2.0 | 0.00 | 0.00 | 0.00 | 57 | 1015.9 |
| 20260508010936 | 67 | 194 | 1.0 | 2.0 | 0.00 | 0.00 | 0.00 | 55 | 1016.0 |
| 20260508010432 | 68 | 154 | 0.0 | 1.0 | 0.00 | 0.00 | 0.00 | 54 | 1015.8 |
| 20260508005929 | 68 | 189 | 1.0 | 2.0 | 0.00 | 0.00 | 0.00 | 53 | 1015.9 |
| 20260508005426 | 69 | 116 | 2.0 | 3.0 | 0.00 | 0.00 | 0.00 | 50 | 1015.7 |
| 20260508004923 | 69 | 83 | 2.0 | 2.0 | 0.00 | 0.00 | 0.00 | 50 | 1015.6 |
| 20260508004419 | 69 | 89 | 0.0 | 2.0 | 0.00 | 0.00 | 0.00 | 50 | 1015.4 |
| 20260508003916 | 70 | 104 | 2.0 | 4.0 | 0.00 | 0.00 | 0.00 | 47 | 1015.6 |
| 20260508003412 | 70 | 106 | 2.0 | 3.0 | 0.00 | 0.00 | 0.00 | 47 | 1015.8 |
| 20260508002910 | 70 | 102 | 1.0 | 2.0 | 0.00 | 0.00 | 0.00 | 47 | 1015.7 |
| 20260508002406 | 70 | 80 | 2.0 | 4.0 | 0.00 | 0.00 | 0.00 | 46 | 1015.9 |
| 20260508001902 | 71 | 100 | 0.0 | 2.0 | 0.00 | 0.00 | 0.00 | 45 | 1015.8 |
| 20260508001358 | 71 | 126 | 0.0 | 4.0 | 0.00 | 0.00 | 0.00 | 45 | 1015.7 |
| 20260508000855 | 73 | 117 | 2.0 | 3.0 | 0.00 | 0.00 | 0.00 | 43 | 1016.1 |
| 20260508000351 | 73 | 220 | 3.0 | 3.0 | 0.00 | 0.00 | 0.00 | 44 | 1016.5 |
| 20260507235848 | 73 | 128 | 1.0 | 4.0 | 0.00 | 0.00 | 0.00 | 44 | 1016.1 |
| 20260507235346 | 73 | 182 | 1.0 | 2.0 | 0.00 | 0.00 | 0.00 | 43 | 1016.1 |
| 20260507234843 | 73 | 135 | 2.0 | 3.0 | 0.00 | 0.00 | 0.00 | 45 | 1016.0 |
| 20260507234339 | 72 | 128 | 0.0 | 1.0 | 0.00 | 0.00 | 0.00 | 44 | 1015.9 |
| 20260507233835 | 73 | 102 | 2.0 | 3.0 | 0.00 | 0.00 | 0.00 | 44 | 1015.8 |
| 20260507233333 | 74 | 96 | 4.0 | 5.0 | 0.00 | 0.00 | 0.00 | 42 | 1016.1 |
| 20260507232831 | 74 | 233 | 3.0 | 3.0 | 0.00 | 0.00 | 0.00 | 41 | 1015.8 |
| 20260507232327 | 74 | 220 | 3.0 | 3.0 | 0.00 | 0.00 | 0.00 | 43 | 1015.8 |
| 20260507231825 | 74 | 32 | 1.0 | 2.0 | 0.00 | 0.00 | 0.00 | 42 | 1016.0 |
| 20260507231321 | 73 | 3 | 2.0 | 2.0 | 0.00 | 0.00 | 0.00 | 43 | 1016.1 |
| 20260507230817 | 72 | 88 | 2.0 | 2.0 | 0.00 | 0.00 | 0.00 | 45 | 1016.1 |
| 20260507230315 | 73 | 8 | 3.0 | 4.0 | 0.00 | 0.00 | 0.00 | 43 | 1016.3 |
| 20260507225810 | 73 | 51 | 2.0 | 5.0 | 0.00 | 0.00 | 0.00 | 46 | 1016.3 |
| 20260507225306 | 72 | 53 | 4.0 | 5.0 | 0.00 | 0.00 | 0.00 | 43 | 1016.2 |
| 20260507224802 | 72 | 100 | 2.0 | 5.0 | 0.00 | 0.00 | 0.00 | 43 | 1016.5 |
| 20260507224259 | 72 | 64 | 1.0 | 2.0 | 0.00 | 0.00 | 0.00 | 43 | 1016.6 |
| 20260507223755 | 72 | 9 | 2.0 | 2.0 | 0.00 | 0.00 | 0.00 | 42 | 1016.7 |
| 20260507223251 | 72 | 183 | 0.0 | 1.0 | 0.00 | 0.00 | 0.00 | 43 | 1016.5 |
| 20260507222749 | 72 | 37 | 2.0 | 5.0 | 0.00 | 0.00 | 0.00 | 43 | 1016.6 |